sat.trackr.live / text

‹ back to catalog

STARLINK-30426

NORAD 57848 · 2023-141J

PAYLOAD ACTIVE UNKNOWN

§ Identity

Operator
Country
US
Launch date
2023-09-12
Launch site
AFWTR
Launch vehicle
Mass (kg)
RCS (m²)

Purposes: comms

External: N2YO · Heavens-Above · Gunter

§ Orbital elements

Epoch: 2026-09-19T22:11:48.594336Z

Period
93.85 min
Inclination
53.1588°
Eccentricity
0.0001389
Mean motion
15.34347416 rev/d
Perigee alt
461.9 km
Apogee alt
463.8 km
Semi-major
6,841.0 km
B*
-1.3182e-4
RAAN
100.4457°
Arg perigee
125.8240°
Mean anomaly
234.2891°
Rev number
17,008

§ Raw data

STARLINK-304261 57848U 23141J   26262.92486799 -.00004820  00000+0 -13182-3 0  99982 57848  53.1588 100.4457 0001389 125.8240 234.2891 15.34347416170081

JSON: /api/v1/satellites/57848 · /tle

For live sub-satellite position, see the globe view (requires WebGL).

§ Visibility from observer

Set your observer location to see the next 7 days of passes ≥ 10°. The values pass through the URL so the page stays shareable.

No JS? Fill the form by hand. The geolocation button needs JavaScript.